Location: Lugano
(46.0000°N, 8.9670°E)
Time: 18:51:00
(UTC+02:00)

LilacSat-2 - Pass Details

Date: 19 May 2026
Orbit: 409 x 417 km, 97.5° (Epoch: 11 June)

Event Time Altitude Azimuth Distance (km) Brightness Sun altitude
Rises 21:48:35 0° 212° (SSW) 2,333 ? -8.5°
Reaches altitude 10° 21:51:44 10° 248° (WSW) 1,481 ? -8.9°
Maximum altitude 21:52:50 11° 269° (W) 1,400 ? -9.1°
Drops below altitude 10° 21:53:58 10° 290° (WNW) 1,488 ? -9.2°
Sets 21:57:09 0° 326° (NW) 2,362 ? -9.6°
